EW3722 Weather Reports


Display with metric or nautical units.
time (UTC)temp
F
wind
direction
speed
MPH
gust
MPH
rain 1hr
in
rain 24hr
in
rain mn
in
humidity
%
barometer
mb
20260503195517 57 0.0 0.0 0.00 0.00 0.00 56 1017.9
20260503194517 58 0.0 0.0 0.00 0.00 0.00 54 1017.9
20260503193517 58 0.0 0.0 0.00 0.00 0.00 53 1017.7
20260503192517 58 0.0 0.0 0.00 0.00 0.00 52 1017.3
20260503191517 59 0.0 0.0 0.00 0.00 0.00 51 1017.3
20260503190517 60 0.0 2.0 0.00 0.00 0.00 49 1017.5
20260503185517 61 0.0 0.0 0.00 0.00 0.00 48 1017.3
20260503184517 61 0.0 0.0 0.00 0.00 0.00 46 1017.2
20260503183517 61 0.0 4.0 0.00 0.00 0.00 44 1017.1
20260503181517 63 0.0 0.0 0.00 0.00 0.00 44 1016.9
20260503180517 65 0.0 0.0 0.00 0.00 0.00 41 1017.2
20260503175517 67 0.0 0.0 0.00 0.00 0.00 40 1016.7
20260503174517 68 0.0 0.0 0.00 0.00 0.00 37 1016.9
20260503173517 69 0.0 0.0 0.00 0.00 0.00 38 1016.7
20260503172537 70 0.0 0.0 0.00 0.00 0.00 32 1016.9
20260503171517 70 0.0 0.0 0.00 0.00 0.00 30 1016.8
20260503170516 71 0.0 0.0 0.00 0.00 0.00 29 1017.0
20260503150516 75 0.0 2.0 0.00 0.00 0.00 29 1017.9
20260503130538 76 0.0 2.0 0.00 0.00 0.00 28 1018.6
20260503110538 73 0.0 4.0 0.00 0.00 0.00 37 1019.1
20260503081517 64 0.0 0.0 0.00 0.00 0.00 50 1020.5
20260503080517 63 0.0 0.0 0.00 0.00 0.00 49 1020.6
20260503072517 57 0.0 0.0 0.00 0.00 0.00 56 1021.1
20260503071537 56 0.0 0.0 0.00 0.00 0.00 58 1021.0
20260503070557 55 0.0 0.0 0.00 0.00 0.00 63 1020.8
20260503054517 43 0.0 0.0 0.00 0.00 0.00 85 1020.6
20260503053517 42 0.0 0.0 0.00 0.00 0.00 85 1020.7
20260503052517 42 0.0 0.0 0.00 0.00 0.00 84 1020.7
20260503051517 42 0.0 0.0 0.00 0.00 0.00 83 1020.8
20260503050517 42 0.0 0.0 0.00 0.00 0.00 83 1020.7
20260503045537 42 0.0 0.0 0.00 0.00 0.00 82 1020.5
20260503044537 42 0.0 0.0 0.00 0.00 0.00 82 1020.5
20260503043517 42 0.0 0.0 0.00 0.00 0.00 82 1020.5
20260503042537 42 0.0 0.0 0.00 0.00 0.00 82 1020.4
20260503041537 42 0.0 0.0 0.00 0.00 0.00 82 1020.4
20260503040517 42 0.0 0.0 0.00 0.00 0.00 81 1020.2
20260503034517 42 0.0 0.0 0.00 0.00 0.00 81 1020.2
20260503033517 42 0.0 0.0 0.00 0.00 0.00 80 1020.2
20260503032537 42 0.0 0.0 0.00 0.00 0.00 80 1020.3
20260503031621 42 0.0 0.0 0.00 0.00 0.00 79 1020.2
20260503031037 42 0.0 0.0 0.00 0.00 0.00 79 1020.2
20260503030036 42 0.0 0.0 0.00 0.00 0.00 78 1020.2
20260503025036 42 0.0 0.0 0.00 0.00 0.00 78 1020.4
20260503023016 43 0.0 0.0 0.00 0.00 0.00 76 1020.6
20260503022036 43 0.0 0.0 0.00 0.00 0.00 75 1020.5
20260503021036 43 0.0 0.0 0.00 0.00 0.00 75 1020.3
20260503020036 44 0.0 0.0 0.00 0.00 0.00 74 1020.3
20260503015016 44 0.0 0.0 0.00 0.00 0.00 74 1020.4
20260503014036 44 0.0 0.0 0.00 0.00 0.00 72 1020.4
20260503013016 45 0.0 0.0 0.00 0.00 0.00 71 1020.4
20260503012058 45 0.0 0.0 0.00 0.00 0.00 70 1020.6
20260503011058 45 0.0 0.0 0.00 0.00 0.00 70 1020.6
20260503010018 45 0.0 0.0 0.00 0.00 0.00 70 1020.7
20260503005018 45 0.0 0.0 0.00 0.00 0.00 69 1020.7
20260503004018 46 0.0 0.0 0.00 0.00 0.00 68 1020.8
20260503003018 45 0.0 0.0 0.00 0.00 0.00 68 1020.7
20260503002018 46 0.0 0.0 0.00 0.00 0.00 67 1020.7
20260503001018 46 0.0 0.0 0.00 0.00 0.00 66 1020.9
20260503000018 46 0.0 0.0 0.00 0.00 0.00 65 1021.1
20260502235018 47 0.0 0.0 0.00 0.00 0.00 64 1021.2
20260502234018 47 0.0 0.0 0.00 0.00 0.00 65 1021.3
20260502233018 47 0.0 0.0 0.00 0.00 0.00 64 1021.4
20260502232018 47 0.0 0.0 0.00 0.00 0.00 64 1021.4
20260502231018 47 0.0 0.0 0.00 0.00 0.00 64 1021.4
20260502230018 47 0.0 0.0 0.00 0.00 0.00 65 1021.3
20260502225018 47 0.0 0.0 0.00 0.00 0.00 65 1021.2
20260502224018 47 0.0 0.0 0.00 0.00 0.00 66 1021.0
20260502223018 48 0.0 0.0 0.00 0.00 0.00 65 1021.0
20260502222018 47 0.0 0.0 0.00 0.00 0.00 66 1021.0
20260502221018 48 0.0 0.0 0.00 0.00 0.00 65 1021.0
20260502220018 48 0.0 0.0 0.00 0.00 0.00 64 1021.0
20260502215017 49 0.0 0.0 0.00 0.00 0.00 63 1021.1
20260502214017 49 0.0 0.0 0.00 0.00 0.00 63 1021.2
20260502213016 49 0.0 0.0 0.00 0.00 0.00 62 1021.1
20260502212017 50 0.0 0.0 0.00 0.00 0.00 61 1021.2
20260502211017 50 0.0 0.0 0.00 0.00 0.00 60 1021.3
20260502210017 50 0.0 0.0 0.00 0.00 0.00 59 1021.3
20260502205036 51 0.0 0.0 0.00 0.00 0.00 58 1021.2
20260502203016 52 0.0 0.0 0.00 0.00 0.00 57 1021.2
20260502202018 52 0.0 0.0 0.00 0.00 0.00 55 1020.9
20260502201017 53 0.0 0.0 0.00 0.00 0.00 54 1021.1
20260502200016 54 0.0 0.0 0.00 0.00 0.00 50 1021.1